Back to catalog

STARLINK-33702

AliveCommunicationsVLEO
NORAD 63591·PAYLOAD·🇺🇸 United States

Launched Apr 14, 2025 from Cape Canaveral Space Force Station

Loading…

Next Passes (next 24 hours)

TLE

FreshSource: CelesTrak SupGP

Epoch: Sep 14, 2026, 21:39 UTC

1 63591C 25076Y   26257.90256944 -.00028870  00000+0 -10453-2 0  2573
2 63591  43.0026 332.8753 0001320 273.4573 345.6316 15.27604463    16

Track STARLINK-33702 in real time with AllMySat

Download on the App Store